Weather History for Banff, AB

Change the Weather History Date:

Tuesday, October 29, 2013

  Actual Average Record
Temperature  
Mean Temperature 30 °F -  
Max Temperature 44 °F - - ()
Min Temperature 15 °F - - ()
Degree Days  
Heating Degree Days 36    
Moisture  
Dew Point 19 °F    
Average Humidity 77    
Maximum Humidity 94    
Minimum Humidity 36    
Precipitation  
Precipitation 0.00 in - - ()
Sea Level Pressure  
Sea Level Pressure 30.07 in    
Wind  
Wind Speed 3 mph ()    
Max Wind Speed 8 mph    
Max Gust Speed -    
T = Trace of Precipitation, MM = Missing Value Source: Averaged Metar Reports

Daily Weather History Graph

Daily Weather History Graph

Search for Another Location

Airport:

Trip Planner

Search our weather history database for the weather conditions in past years. The results will help you decide how hot, cold, wet, or windy it might be!

Date:

Astronomy

Oct. 29, 2013 Rise Set
Actual Time 8:30 AM MDT 6:20 PM MDT
Civil Twilight 7:55 AM MDT 6:55 PM MDT
Nautical Twilight 7:16 AM MDT 7:34 PM MDT
Astronomical Twilight 6:38 AM MDT 8:12 PM MDT
Moon 2:52 AM MDT (10/29) 4:05 PM MDT (10/29)
Length of Visible Light 10h 59m
Length of Day
9h 50m
Waning Crescent, 24% of the Moon is Illuminated
Oct 29
Waning Crescent
Nov 3
New
Nov 9
First Quarter
Nov 17
Full
Nov 25
Last Quarter

Hourly Weather History & Observations

Time (MDT) Temp. Windchill Dew Point Humidity Pressure Visibility Wind Dir Wind Speed Gust Speed Precip Events Conditions
12:00 AM 15.8 °F - 14.4 °F 94% 30.27 in - West 1.2 mph - N/A   Unknown
1:00 AM 15.8 °F - 14.2 °F 93% 30.25 in - SW 1.2 mph - N/A   Unknown
2:00 AM 17.2 °F 11.9 °F 15.4 °F 93% 30.22 in - SW 3.5 mph - N/A   Unknown
3:00 AM 17.2 °F 10.2 °F 14.9 °F 91% 30.21 in - SW 4.6 mph - N/A   Unknown
4:00 AM 17.4 °F 12.1 °F 14.9 °F 90% 30.18 in - SW 3.5 mph - N/A   Unknown
5:00 AM 17.1 °F - 14.5 °F 90% 30.17 in - SW 2.3 mph - N/A   Unknown
6:00 AM 17.1 °F 10.0 °F 14.2 °F 88% 30.16 in - SW 4.6 mph - N/A   Unknown
7:00 AM 16.2 °F 9.0 °F 14.0 °F 91% 30.17 in - SW 4.6 mph - N/A   Unknown
8:00 AM 16.0 °F 10.4 °F 13.6 °F 90% 30.17 in - SW 3.5 mph - N/A   Unknown
9:00 AM 16.3 °F 7.8 °F 13.8 °F 90% 30.15 in - SW 5.8 mph - N/A   Unknown
10:00 AM 19.0 °F 10.0 °F 14.9 °F 84% 30.15 in - SW 6.9 mph - N/A   Unknown
11:00 AM 24.4 °F 15.6 °F 16.9 °F 73% 30.11 in - SW 8.1 mph - N/A   Unknown
12:00 PM 29.8 °F 23.0 °F 18.5 °F 63% 30.08 in - WSW 6.9 mph - N/A   Unknown
1:00 PM 36.1 °F 31.4 °F 20.3 °F 53% 30.02 in - SW 5.8 mph - N/A   Unknown
2:00 PM 41.2 °F 37.3 °F 19.8 °F 42% 29.97 in - SW 5.8 mph - N/A   Unknown
3:00 PM 44.8 °F 42.4 °F 19.4 °F 36% 29.92 in - West 4.6 mph - N/A   Unknown
4:00 PM 42.6 °F 40.9 °F 27.1 °F 54% 29.91 in - NW 3.5 mph - N/A   Unknown
5:00 PM 38.3 °F 33.9 °F 28.6 °F 68% 29.91 in - NNW 5.8 mph - N/A   Unknown
6:00 PM 35.1 °F 31.0 °F 29.1 °F 79% 29.93 in - NNW 4.6 mph - N/A   Unknown
7:00 PM 31.6 °F 28.3 °F 27.5 °F 85% 29.94 in - NW 3.5 mph - N/A   Unknown
8:00 PM 30.9 °F - 25.9 °F 82% 29.95 in - West 1.2 mph - N/A   Unknown
9:00 PM 33.3 °F 30.2 °F 25.2 °F 72% 29.94 in - WSW 3.5 mph - N/A   Unknown
10:00 PM 31.6 °F 28.3 °F 23.9 °F 73% 29.93 in - WSW 3.5 mph - N/A   Unknown
11:00 PM 31.8 °F 27.3 °F 23.5 °F 71% 29.92 in - West 4.6 mph - N/A   Unknown